Wind_Speed
21 22 23 23 23 24 24 24 25 26 25 25 26 26 27 28 29 30 30 30 30 30 30 31 32 32 32 32 31 32 32 32 32 33 33 33 34 33 32 33 33 33 33
20 21 21 21 22 23 24 25 25 26 25 26 26 26 27 27 28 29 30 30 29 29 30 31 32 32 32 32 32 32 33 33 33 33 33 33 34 33 33 33 33 33 33
20 21 21 22 22 22 23 24 25 25 26 26 26 27 27 28 28 29 30 30 30 30 30 30 31 32 32 31 31 31 32 33 33 33 34 34 34 32 33 33 33 33 34
20 21 21 22 23 23 24 24 25 25 26 27 27 27 28 29 29 29 29 30 30 29 29 29 30 30 30 31 32 32 33 33 32 33 33 33 33 33 32 33 33 34 34
20 21 22 22 23 23 24 25 26 26 26 27 28 28 28 29 30 30 29 29 29 29 29 29 29 29 30 31 32 32 32 32 31 32 32 32 33 33 33 33 33 34 35
20 21 22 22 23 23 24 25 25 26 26 27 27 27 28 29 29 29 28 28 28 28 28 28 29 30 31 31 31 31 31 31 31 31 31 31 31 31 32 33 33 33 34
20 20 21 21 22 23 24 25 25 26 26 26 26 26 27 28 28 28 28 28 28 27 28 28 29 30 31 31 30 31 31 30 30 30 30 30 30 30 31 31 32 32 33
19 20 20 21 21 22 23 24 24 25 25 25 26 26 26 27 27 27 27 27 26 26 28 28 28 29 29 29 29 29 29 28 29 29 29 29 30 30 30 30 30 30 30
19 19 20 20 20 21 22 22 22 23 24 25 26 26 26 26 25 25 24 24 24 25 26 26 27 28 27 27 27 26 26 26 26 27 27 27 28 28 28 28 28 28 28
19 19 19 19 19 19 20 21 21 23 24 25 25 25 25 24 24 23 23 22 23 24 25 25 26 26 25 25 25 25 25 24 24 24 25 25 26 26 26 26 27 27 28
19 19 19 18 18 19 20 21 22 22 23 24 24 23 23 23 22 22 22 22 23 23 24 24 24 24 24 23 23 23 23 23 23 24 24 24 25 25 25 26 26 27 27
19 19 19 18 18 18 19 20 21 22 22 22 23 22 22 21 21 21 21 22 22 22 22 22 23 23 23 23 22 22 22 22 22 24 24 22 22 23 24 24 25 25 26
19 18 19 19 18 18 18 19 20 21 22 22 22 23 22 21 20 20 21 21 21 21 21 22 22 22 23 22 22 22 22 22 22 22 22 21 20 21 22 23 23 23 24
18 18 18 18 18 18 18 18 19 21 21 21 21 21 21 20 20 19 19 20 20 20 21 21 21 21 22 22 22 21 21 21 21 21 21 20 20 19 20 21 21 22 23
17 18 18 17 17 17 17 18 19 20 19 19 20 20 20 19 19 19 19 19 20 20 20 21 21 21 21 21 21 21 20 19 19 20 20 20 20 20 20 21 21 22 22
17 17 16 16 17 17 16 16 17 17 18 18 18 18 17 17 17 18 18 19 19 20 20 20 20 20 21 20 19 18 19 18 18 19 19 20 20 20 21 21 21 22 22
15 15 14 14 15 14 14 15 16 16 16 17 17 17 16 16 16 17 18 19 19 19 19 19 19 19 19 19 18 18 17 17 18 18 19 19 20 20 20 20 21 21 21
13 13 13 13 13 13 13 14 15 15 15 16 16 15 16 16 16 17 17 18 19 19 18 18 17 17 17 17 17 17 17 17 17 17 18 18 19 19 20 19 19 19 20
11 11 11 11 11 11 11 12 13 14 15 15 15 15 15 15 15 17 17 18 19 18 18 17 17 17 17 18 17 17 17 17 17 17 17 18 18 18 18 18 18 18 19
10 10 10 9 10 10 10 11 12 13 13 14 15 15 15 15 16 16 17 17 18 17 17 17 17 17 17 18 17 17 18 18 18 18 18 17 17 17 18 18 18 18 18
10 10 9 8 9 9 10 10 11 12 13 14 14 14 14 14 15 15 16 17 17 17 17 17 18 17 17 18 18 17 18 18 18 18 18 18 18 18 17 17 18 18 17
8 8 7 8 8 9 9 10 10 11 12 13 13 13 13 14 15 15 16 17 17 18 18 18 18 18 18 19 18 18 18 18 18 18 18 18 17 17 18 17 17 18 18
7 7 6 7 8 8 8 9 10 11 12 12 12 13 14 14 15 16 16 17 18 18 19 19 19 19 19 19 19 18 18 18 19 19 19 18 17 17 17 17 17 17 17
5 5 6 6 6 7 8 9 9 10 11 11 12 12 13 14 15 16 17 17 18 18 19 19 19 20 20 20 19 19 19 19 19 19 19 19 18 18 18 18 17 17 17
4 4 5 6 6 7 7 8 10 10 11 11 13 14 15 15 16 16 17 17 18 18 18 19 20 20 20 20 20 20 20 20 19 20 20 20 19 19 19 19 18 19 18
3 4 4 5 6 7 8 8 9 10 11 12 13 14 15 15 16 17 17 17 18 19 19 20 21 21 21 21 21 21 21 20 20 20 20 20 20 19 19 18 19 19 19
Wind_Direction
279 278 279 279 280 282 283 284 284 285 286 288 288 287 287 287 289 289 288 286 285 284 283 284 283 282 282 283 282 281 281 282 281 280 278 276 274 271 270 269 268 267 267
281 281 281 280 281 282 284 288 287 286 288 290 291 292 293 293 292 291 289 288 286 285 284 284 284 284 284 284 284 283 282 282 283 281 278 276 275 273 271 270 268 267 267
283 282 280 280 282 285 287 289 290 290 290 292 294 294 294 294 293 291 288 286 284 284 285 285 285 284 285 285 284 284 283 282 282 280 279 277 276 272 270 270 269 268 268
285 285 284 282 282 284 286 287 290 291 291 293 295 295 296 296 294 293 292 289 285 285 286 286 286 286 286 287 286 284 283 282 281 279 277 276 275 273 270 269 269 269 269
288 289 289 287 284 284 287 287 289 291 292 294 296 296 297 296 295 295 293 291 289 287 287 286 288 288 289 288 287 286 284 283 281 280 278 276 275 275 272 271 269 269 270
290 289 288 286 285 286 288 290 292 294 295 296 297 298 298 298 297 295 294 292 291 289 287 286 289 290 290 289 287 286 285 283 282 280 278 277 276 274 273 272 270 270 271
290 290 290 287 286 287 288 290 293 294 295 297 299 299 300 300 299 296 294 292 290 290 288 287 289 290 290 289 287 286 285 283 282 281 279 278 277 276 275 274 273 272 271
292 292 291 289 289 290 290 291 293 294 296 298 298 298 300 301 300 298 296 294 293 293 292 291 292 292 291 289 288 287 285 283 282 281 279 278 277 276 277 276 274 272 271
294 295 293 291 292 293 293 293 294 297 298 298 298 297 300 300 300 300 300 296 295 296 296 294 294 294 292 289 288 287 286 286 285 283 280 278 277 278 278 276 276 273 271
293 294 294 292 293 295 296 296 298 299 299 298 299 299 302 304 301 301 301 300 299 300 301 298 297 296 295 291 290 290 289 289 287 285 283 281 279 279 280 279 278 275 273
293 294 294 293 294 295 296 298 300 301 301 299 302 303 306 306 304 304 304 303 303 303 304 304 302 301 299 297 295 292 290 290 289 287 285 283 282 281 281 280 277 275 275
293 292 292 292 293 295 298 301 303 303 303 303 303 305 308 309 308 306 305 305 306 307 307 307 307 304 302 299 296 294 293 291 289 287 286 284 283 283 282 281 278 277 276
291 291 292 292 292 295 300 303 304 304 303 303 304 306 309 310 309 309 309 309 309 309 309 309 309 307 306 302 299 297 297 294 290 290 290 289 287 287 286 284 281 279 277
290 292 293 293 292 295 298 302 305 307 307 306 308 310 311 310 310 311 311 312 312 312 312 311 311 309 307 305 303 300 298 295 293 293 293 292 290 289 289 288 285 282 279
291 290 291 292 292 294 297 301 304 308 311 313 313 313 312 313 314 314 313 314 315 314 312 311 311 310 310 308 306 303 299 296 296 295 293 291 289 287 288 289 287 285 282
292 290 290 292 295 296 298 302 305 309 314 316 317 318 319 318 318 317 316 316 317 318 317 316 315 314 312 312 311 308 304 300 297 295 294 293 290 288 288 288 287 285 284
293 291 294 295 296 298 300 306 311 315 319 320 321 321 322 323 323 322 322 322 322 324 323 321 319 318 318 318 318 318 312 305 301 301 300 297 296 292 291 291 289 288 286
297 296 294 295 297 297 300 306 315 320 321 322 324 324 324 325 327 327 327 329 328 328 327 325 324 326 327 328 326 322 319 315 310 307 304 302 299 299 296 296 295 293 291
298 295 294 296 301 302 306 310 314 318 320 322 325 327 328 328 331 332 332 333 332 332 332 330 331 331 332 333 329 326 325 322 318 316 313 309 307 305 304 301 298 296 293
300 298 296 296 298 302 304 307 313 318 320 325 328 330 333 332 333 333 336 336 333 333 334 334 333 333 332 332 331 328 327 325 322 319 317 315 313 308 308 306 302 299 297
301 305 303 301 301 302 302 309 316 324 328 331 333 337 340 340 338 338 338 337 336 337 337 334 334 333 332 332 330 329 327 326 326 323 321 319 316 314 312 308 306 304 300
301 308 309 310 307 307 310 314 323 332 336 338 340 341 343 343 342 342 341 341 340 339 337 336 334 333 332 331 329 330 329 328 327 327 325 321 319 318 316 312 308 307 304
307 312 315 316 315 316 322 327 330 335 340 342 343 344 344 344 344 342 342 343 342 342 341 340 340 338 335 333 332 331 331 329 328 328 326 323 322 321 319 315 312 310 308
308 316 329 332 334 333 333 333 337 340 343 345 349 349 346 345 346 344 344 346 345 345 344 344 343 343 341 339 338 337 336 333 331 329 328 325 322 320 318 316 314 313 309
306 315 326 334 337 340 341 341 342 343 344 346 347 346 345 344 345 346 346 349 350 348 347 348 347 346 345 343 341 339 338 337 334 332 331 328 324 321 319 318 315 314 311
301 317 319 326 333 339 344 343 343 344 345 347 348 348 349 349 349 350 352 353 352 351 349 350 349 349 347 344 342 339 338 337 335 333 331 329 326 323 321 319 317 315 314
Height
5848 5847 5845 5843 5842 5841 5839 5838 5836 5834 5832 5830 5828 5826 5824 5822 5820 5817 5815 5812 5810 5809 5807 5805 5804 5802 5801 5799 5798 5796 5795 5794 5792 5790 5789 5788 5786 5786 5785 5785 5785 5785 5785
5844 5842 5840 5838 5837 5836 5835 5833 5831 5829 5827 5825 5822 5820 5818 5816 5813 5810 5808 5805 5803 5802 5800 5798 5796 5795 5793 5791 5790 5788 5787 5785 5784 5782 5781 5780 5779 5777 5777 5776 5776 5776 5776
5839 5837 5835 5834 5832 5831 5830 5828 5826 5823 5822 5819 5817 5814 5812 5809 5806 5804 5801 5799 5797 5795 5792 5790 5789 5787 5785 5783 5781 5780 5779 5777 5775 5773 5772 5771 5770 5769 5769 5768 5767 5767 5767
5834 5832 5830 5829 5827 5826 5824 5822 5820 5818 5816 5814 5811 5808 5805 5802 5799 5796 5794 5791 5789 5787 5785 5783 5781 5779 5777 5775 5773 5772 5770 5768 5766 5765 5763 5762 5761 5760 5760 5759 5758 5758 5758
5829 5827 5825 5823 5822 5820 5819 5817 5815 5813 5810 5808 5805 5802 5799 5796 5792 5789 5786 5784 5782 5780 5777 5776 5774 5772 5770 5767 5765 5763 5762 5760 5758 5757 5755 5753 5752 5751 5751 5750 5749 5749 5748
5824 5822 5820 5818 5816 5815 5813 5811 5809 5807 5805 5802 5799 5796 5793 5789 5786 5782 5779 5777 5775 5772 5770 5768 5766 5764 5762 5759 5757 5755 5753 5751 5750 5748 5746 5745 5744 5743 5742 5741 5740 5740 5739
5819 5817 5815 5813 5812 5810 5808 5806 5804 5802 5799 5796 5793 5789 5786 5782 5779 5776 5773 5770 5768 5765 5763 5761 5758 5756 5753 5751 5749 5747 5745 5743 5741 5739 5738 5736 5735 5734 5733 5732 5731 5731 5730
5814 5812 5810 5808 5806 5804 5802 5800 5798 5796 5793 5790 5786 5783 5780 5776 5772 5769 5766 5763 5761 5758 5756 5753 5751 5748 5745 5743 5740 5738 5736 5734 5733 5731 5729 5728 5727 5725 5724 5723 5722 5722 5721
5808 5806 5804 5802 5801 5799 5797 5795 5793 5790 5787 5784 5780 5777 5773 5770 5766 5763 5760 5757 5754 5752 5749 5746 5743 5740 5737 5735 5732 5730 5728 5726 5725 5723 5722 5720 5719 5717 5716 5715 5714 5713 5713
5803 5801 5799 5797 5795 5794 5792 5789 5787 5785 5782 5778 5775 5771 5768 5764 5761 5758 5754 5751 5749 5746 5743 5740 5736 5733 5730 5727 5725 5723 5721 5719 5717 5716 5714 5712 5711 5709 5708 5707 5706 5705 5704
5798 5796 5794 5792 5791 5789 5787 5784 5782 5779 5776 5773 5769 5766 5762 5759 5755 5752 5749 5746 5743 5740 5737 5733 5730 5727 5724 5721 5718 5716 5714 5712 5711 5709 5707 5705 5704 5702 5701 5699 5698 5697 5696
5793 5791 5789 5788 5786 5784 5782 5779 5777 5774 5771 5767 5764 5761 5757 5754 5750 5747 5744 5741 5737 5734 5731 5728 5724 5721 5718 5715 5712 5710 5708 5706 5704 5702 5700 5698 5697 5695 5693 5692 5690 5689 5688
5788 5786 5784 5782 5781 5779 5777 5775 5772 5769 5766 5762 5759 5756 5752 5749 5746 5743 5739 5736 5732 5729 5726 5722 5719 5716 5712 5709 5706 5704 5701 5699 5698 5696 5694 5692 5690 5688 5687 5685 5683 5682 5681
5782 5781 5779 5777 5776 5774 5772 5770 5767 5764 5761 5757 5754 5751 5748 5745 5741 5738 5735 5731 5728 5725 5721 5718 5714 5711 5707 5704 5701 5698 5696 5694 5692 5690 5688 5686 5684 5682 5681 5679 5677 5676 5674
5777 5775 5774 5772 5771 5769 5767 5766 5763 5760 5756 5753 5750 5747 5743 5740 5737 5734 5730 5727 5724 5720 5717 5713 5710 5706 5702 5699 5696 5693 5690 5688 5686 5684 5682 5680 5678 5677 5675 5673 5671 5670 5668
5771 5770 5769 5767 5766 5764 5763 5761 5758 5756 5752 5749 5746 5743 5739 5736 5733 5730 5727 5724 5720 5716 5712 5709 5705 5702 5698 5694 5691 5688 5685 5683 5681 5679 5677 5675 5673 5671 5669 5667 5665 5663 5662
5766 5765 5764 5763 5762 5760 5759 5756 5754 5751 5749 5746 5743 5739 5736 5733 5730 5727 5724 5720 5716 5712 5708 5705 5701 5698 5694 5691 5687 5684 5681 5678 5676 5674 5672 5669 5667 5665 5663 5661 5659 5657 5655
5762 5761 5760 5759 5758 5757 5755 5754 5751 5748 5746 5743 5740 5737 5734 5731 5728 5724 5721 5717 5714 5710 5706 5702 5698 5695 5691 5687 5684 5681 5677 5674 5672 5669 5667 5664 5662 5659 5657 5655 5653 5651 5649
5759 5758 5757 5756 5755 5754 5753 5751 5749 5746 5743 5741 5738 5734 5731 5728 5725 5722 5718 5715 5711 5707 5703 5699 5696 5692 5689 5685 5681 5678 5674 5671 5668 5665 5662 5660 5657 5655 5652 5650 5648 5645 5643
5756 5755 5754 5753 5752 5751 5750 5749 5747 5744 5741 5738 5736 5732 5729 5726 5723 5720 5716 5713 5709 5705 5701 5698 5694 5690 5686 5682 5679 5675 5671 5668 5665 5662 5658 5655 5653 5650 5648 5645 5643 5641 5638
5754 5753 5751 5750 5750 5749 5748 5746 5745 5742 5739 5736 5734 5730 5727 5724 5721 5718 5714 5711 5707 5703 5699 5695 5691 5687 5683 5680 5676 5672 5668 5665 5661 5658 5655 5652 5649 5646 5643 5641 5638 5636 5633
5751 5750 5750 5749 5748 5747 5746 5744 5743 5740 5737 5735 5732 5729 5726 5722 5719 5716 5713 5709 5705 5701 5697 5693 5689 5685 5680 5676 5673 5669 5665 5661 5658 5654 5651 5648 5645 5642 5639 5636 5634 5631 5628
5750 5749 5748 5748 5747 5746 5744 5742 5741 5739 5736 5733 5730 5727 5724 5721 5718 5714 5711 5707 5703 5699 5694 5690 5686 5682 5677 5673 5670 5666 5662 5658 5654 5651 5648 5644 5641 5638 5635 5632 5629 5626 5624
5748 5748 5747 5747 5745 5744 5743 5741 5739 5737 5734 5732 5729 5726 5723 5720 5716 5713 5709 5705 5701 5696 5692 5688 5684 5679 5675 5671 5666 5662 5659 5655 5651 5647 5644 5641 5637 5634 5631 5628 5625 5622 5619
5747 5747 5746 5745 5744 5743 5742 5740 5738 5736 5733 5731 5728 5725 5722 5718 5715 5711 5707 5703 5699 5695 5690 5686 5682 5677 5673 5668 5664 5659 5655 5651 5648 5644 5640 5637 5633 5630 5627 5623 5620 5617 5614
5746 5746 5745 5744 5743 5742 5741 5739 5737 5735 5732 5730 5727 5724 5720 5717 5713 5709 5706 5702 5698 5693 5689 5685 5680 5675 5671 5666 5661 5657 5653 5648 5645 5641 5637 5633 5629 5626 5622 5619 5616 5613 5610